THORAD AGENA D DEB, 4919

Orbit data source: Space-Track

THORAD AGENA D DEB, 4919 is space debris in SSO originally from a launch on Wed, 08 Apr 1970 UTC launched from the Air Force Western Test Range (AFWTR). Debris objects in space refer to the collection of defunct objects orbiting the Earth. Examples of debris include non-operational satellites, rocket bodies, and fragments generated from explosions, collisions, or faulty payload assembly.

Loading next visibility...
Identifier
4919, 1970-025FR
Orbit
SSO
Country
Flag of USUS
Related business
Manufacturer
Unknown
Mission
Spacecraft
Bus & Motor
Unknown
Mass
Unknown
Launch date (UTC)
1970-04-08 (56 years ago)
Launch vehicle
Unknown
Launch site
Air Force Western Test Range (AFWTR)
Object type
Payload
Rocket body
Debris
Shape & HBR
Unknown shape, 0.1 m
Radar Cross Section
Small (<0.1 m²)

Expand to show TLE details & history
Last TLE update: 8 hours ago

TLE from 8 hours ago
0 THORAD AGENA D DEB
1  4919U 70025FR  26257.05143661  .00001600  00000-0  76790-3 0  9994
2  4919 100.0628  10.1582 0040634 209.3165 150.5727 14.20251856863055
Epoch: 2026-09-14T01:14Z
TLE epoch observation values (Epoch: 2026-09-14T01:14:04.123Z)
Latitude
0.00001°
Longitude
-1.39627°
Altitude
852.894 km
Speed
7.413 km/s
True Right ascension
00h 40m 37s
True Declination
0° 00' 00"
Sunlit
Object was in full shadow at epoch
Visualization orbit readout
Latitude
Unknown
Longitude
Unknown
Altitude
Unknown
Speed
Unknown
Apparent Right ascension
Unknown
Apparent Declination
Unknown
Sunlit
N/A
Visualization observer readout
Local Sidereal Time
01:34:51
Azimuth
Unknown
Elevation
Unknown
Doppler factor
Unknown
Orbital elements
Apogee altitude
850.985 km
Perigee altitude
792.473 km
Semi-major axis
7,199.866 km
Eccentricity
0.00406
Inclination
100.0628°
RAAN
10.1582°
Arg. of periapsis
209.3165°
True anomaly
150.80047°
Mean anomaly
150.5727°
Eccentric anomaly
150.68668°
Mean motion
3.55268 °/min
Orbital period
101.33 mins
BSTAR
0.0007679
Loading maneuver chart data...
Computing Atmospheric mass density...

Documentation

Showing up to 5 results
|